Wind_Speed
28 26 24 25 30 30 23 20 22 24 25 23 21 19 18 19 20 20 21 21 20 19 19 18 18 17 16 14 14 14 14 15 15 16 16 16 17 17 18 18 18 18 17 15 14 13 13 13 13 14 14 14 14 15 15 15 16 16 16 15 15 15 15 16 17 17 18 18 18 18 18 18 18 19 19 19 19 19 19 20 21 21 21 21 21
33 30 27 25 27 29 27 26 27 27 27 25 22 20 20 20 21 21 22 21 21 20 21 20 19 19 19 17 17 16 16 15 16 16 16 17 16 16 16 17 18 18 18 17 16 15 15 15 14 15 15 15 16 16 16 16 17 17 17 18 17 17 17 17 18 19 19 20 20 21 20 20 20 21 21 21 21 21 21 22 22 23 23 23 23
36 35 32 29 29 29 30 32 32 30 29 27 25 23 23 22 22 22 22 22 22 22 22 21 21 22 22 22 21 20 19 17 16 17 18 18 18 17 16 16 17 17 17 17 16 16 15 15 15 16 16 16 17 17 18 18 18 19 19 19 19 19 19 19 19 20 21 22 22 23 23 23 23 23 23 24 24 24 24 24 24 25 25 25 25
38 37 36 34 32 31 32 35 35 34 32 30 29 29 28 26 26 26 26 26 25 24 23 23 25 25 24 24 24 23 22 21 19 19 19 19 20 19 18 17 17 17 16 16 16 16 16 15 16 16 16 16 17 18 18 19 19 19 20 20 20 20 20 20 20 20 21 22 22 23 24 24 25 25 25 25 25 26 26 26 27 27 27 27 27
38 39 39 37 34 32 32 33 34 34 32 31 32 33 32 31 30 29 30 30 29 28 28 28 28 28 27 26 26 25 25 24 23 22 21 21 22 22 21 20 19 18 18 17 17 18 18 17 17 17 17 17 17 18 18 18 18 19 19 19 19 20 20 20 20 20 19 20 21 22 22 23 24 25 26 25 25 26 26 26 27 28 28 28 28
37 38 39 39 37 35 35 34 33 33 33 33 33 33 34 33 31 30 30 30 31 32 33 32 31 31 31 30 28 28 29 27 26 25 25 25 25 25 25 24 23 22 20 19 19 20 20 19 19 19 19 20 20 19 19 19 20 20 20 21 21 21 21 21 21 21 20 20 21 22 23 23 23 25 26 26 26 27 26 26 26 27 27 28 29
38 39 40 41 40 40 39 39 38 37 36 36 35 35 35 34 33 31 30 29 30 32 33 33 31 30 31 32 32 32 31 29 28 28 28 28 28 28 28 27 26 25 23 23 23 23 23 23 23 22 22 22 22 22 22 22 22 23 23 24 24 24 24 24 23 23 22 22 22 23 24 24 25 25 26 27 27 28 29 28 28 28 28 27 28
41 41 42 42 42 43 42 42 42 41 40 40 39 39 38 37 37 37 35 34 34 35 35 35 35 33 32 33 33 33 31 31 31 31 31 31 30 29 29 29 29 28 27 26 25 25 26 26 26 25 26 26 26 25 25 25 25 26 26 26 26 26 26 26 26 25 25 25 25 25 25 26 27 27 27 28 28 28 29 30 30 31 32 31 30
44 44 44 44 44 45 46 46 45 45 44 44 43 43 43 42 42 42 41 41 40 40 40 40 40 39 38 36 35 35 34 33 32 33 34 34 33 31 31 31 31 31 31 30 28 28 28 29 28 28 29 29 29 29 29 29 30 30 31 31 31 31 31 30 30 30 29 29 29 30 30 30 31 30 30 31 31 30 30 31 31 32 33 35 35
48 47 47 47 47 47 48 49 49 49 49 48 47 47 47 47 46 46 46 45 44 44 44 43 43 43 42 41 40 39 38 37 35 33 32 32 33 33 32 33 33 33 33 33 32 33 33 32 32 32 33 34 34 34 34 34 34 35 36 37 37 37 37 37 36 35 34 34 34 35 35 35 36 36 35 35 36 35 35 35 35 34 34 35 37
49 50 50 49 49 49 49 50 51 51 51 51 51 51 51 51 50 49 48 48 47 47 46 46 46 45 45 45 44 43 43 42 40 37 36 36 37 37 36 36 36 35 35 35 35 35 36 37 37 37 38 38 39 39 39 39 40 40 40 41 42 43 43 43 42 41 40 39 38 39 39 39 39 40 40 40 40 40 40 40 40 39 38 37 37
44 47 50 51 51 51 51 51 52 53 53 53 54 54 54 53 53 52 50 49 48 48 48 47 47 47 48 48 48 47 47 46 46 45 45 45 46 45 44 43 42 42 42 41 40 38 38 39 40 41 42 42 42 43 43 43 43 43 43 43 44 45 46 47 46 46 45 44 43 42 43 42 42 43 44 44 44 44 44 44 44 44 44 43 41
43 44 46 48 48 49 49 50 51 53 53 54 55 56 56 56 55 55 53 52 50 50 50 49 49 49 49 49 49 49 48 48 48 48 48 48 48 48 47 46 47 48 48 48 46 43 41 42 44 45 45 45 45 45 45 45 45 45 45 45 46 47 48 49 49 49 49 48 47 47 47 47 47 46 47 48 47 47 47 47 47 48 47 47 46
44 42 43 44 44 45 46 47 48 50 51 52 53 53 54 54 55 55 55 54 54 53 53 52 52 52 51 50 50 49 48 48 48 48 49 49 49 49 47 46 46 47 49 49 48 46 45 46 47 48 48 48 47 47 47 47 48 48 48 48 49 49 50 50 51 51 51 51 51 50 51 51 51 50 51 51 51 51 51 50 50 50 49 50 50
46 45 44 45 46 48 48 48 48 49 50 51 51 51 51 52 52 52 53 54 54 54 53 53 53 53 53 53 52 51 50 49 48 49 50 50 50 50 50 49 48 47 47 48 48 47 48 48 49 49 49 50 50 50 51 51 51 51 51 51 51 51 51 52 52 52 52 53 53 54 54 55 55 54 54 54 54 54 54 53 52 52 51 51 51
49 50 50 50 51 52 51 50 50 50 50 51 51 51 51 51 51 51 51 52 52 52 52 51 52 53 53 53 52 51 51 51 50 51 51 51 51 51 51 51 50 49 48 48 48 48 49 49 50 50 50 51 51 52 53 54 54 54 54 54 54 54 54 54 54 54 54 55 55 56 57 57 58 58 57 57 56 56 56 55 55 55 54 52 52
52 53 53 54 54 54 54 53 52 51 51 50 51 51 51 51 51 51 51 51 52 52 52 51 52 52 52 52 51 51 52 54 54 54 54 53 53 53 52 51 51 51 50 50 50 49 49 50 50 50 51 51 52 52 53 54 55 55 56 56 56 56 57 57 57 57 57 57 58 58 59 59 59 59 59 58 58 58 57 56 56 57 55 54 53
53 54 55 55 55 55 55 53 51 49 49 50 50 50 50 50 51 51 51 51 51 51 52 52 52 51 51 52 51 52 52 53 55 55 55 55 55 54 52 51 50 50 50 50 51 50 50 50 50 50 50 50 51 52 53 53 54 55 55 55 56 57 57 58 58 58 58 59 59 59 60 60 60 59 59 58 58 58 58 57 57 57 56 55 55
57 57 57 57 57 56 55 53 51 50 50 50 50 50 50 50 51 51 51 51 51 51 52 52 51 51 51 51 52 52 52 53 53 54 53 53 52 52 51 50 50 50 49 49 50 50 50 49 49 49 49 49 50 51 52 52 53 53 54 54 55 55 56 57 57 57 57 57 58 58 59 59 59 59 58 58 58 59 58 58 57 57 57 56 56
61 60 58 57 56 55 54 54 53 52 51 50 50 49 50 50 51 51 52 52 53 53 53 53 52 52 51 51 51 52 52 53 53 53 53 52 51 50 50 50 49 49 49 49 49 49 49 49 49 49 49 49 49 50 51 51 52 52 53 53 54 54 55 55 55 55 55 55 56 56 57 57 58 58 58 58 58 58 58 58 58 58 58 58 58
61 60 58 57 56 55 55 54 53 52 51 50 49 49 49 49 49 50 51 52 53 52 53 53 53 53 52 52 52 52 52 52 53 53 53 53 52 51 50 49 49 49 49 49 49 49 49 48 48 49 49 49 50 50 51 51 51 52 52 53 54 54 54 54 54 54 55 55 55 55 56 57 57 57 57 58 58 58 58 58 59 59 60 59 59
61 59 58 56 55 53 52 51 50 50 49 49 48 48 48 48 47 48 49 50 50 50 50 51 51 52 52 52 52 52 51 52 52 52 52 52 52 51 50 50 50 50 50 50 50 50 49 49 49 49 49 50 51 51 51 51 51 52 52 53 53 53 54 54 54 54 54 55 55 55 56 57 57 57 57 58 58 58 58 58 59 59 60 60 59
58 57 56 54 53 52 51 50 50 50 49 48 48 47 47 47 46 47 48 47 47 47 48 48 49 49 50 50 51 50 50 49 49 49 50 50 50 50 50 50 50 50 50 50 50 50 50 49 49 50 50 51 51 51 51 51 52 52 52 53 53 53 54 54 54 54 55 55 55 56 57 57 57 58 58 58 59 59 59 59 59 60 60 60 59
56 55 55 54 54 54 53 53 52 51 50 49 48 47 46 46 46 46 47 47 46 46 46 46 46 47 47 48 48 48 47 46 46 46 46 46 46 46 47 48 48 49 49 50 50 50 50 50 50 51 51 52 52 52 51 52 52 52 53 53 53 54 54 54 55 55 55 56 56 57 57 58 58 59 59 59 59 59 59 59 59 60 60 60 59
57 56 56 56 56 56 56 55 53 52 50 49 47 46 46 46 46 46 46 46 45 45 46 45 45 46 46 47 47 46 45 44 44 43 43 43 43 43 43 43 44 45 47 48 48 49 49 49 49 49 50 50 50 50 51 51 51 51 52 52 53 54 54 54 54 55 55 55 56 57 57 58 59 59 59 60 60 60 59 59 58 59 59 60 60
57 57 57 57 57 57 56 55 53 52 50 49 48 47 46 46 46 45 45 45 44 44 45 45 45 45 45 46 46 45 43 42 41 41 42 42 41 41 41 41 42 42 43 44 45 45 45 46 46 46 46 47 47 47 47 48 48 49 50 51 51 52 52 53 53 54 54 55 55 56 57 57 58 59 59 59 59 59 59 59 59 59 59 60 61
57 57 57 56 56 56 55 54 53 52 51 50 49 47 47 46 45 44 44 44 44 44 44 44 44 44 44 44 44 43 41 40 40 40 40 40 40 40 40 40 40 41 41 41 41 42 42 42 42 43 43 43 44 44 44 45 46 46 47 48 49 50 51 51 52 53 53 54 55 56 56 57 58 58 59 59 60 60 61 61 61 62 63 64 64
56 56 56 56 55 54 54 53 52 52 51 50 49 48 47 46 44 43 43 43 43 43 43 42 42 41 41 42 42 41 40 40 40 40 39 39 40 40 40 40 41 41 41 41 41 41 42 42 42 43 43 44 44 44 45 45 46 47 48 48 49 50 51 51 52 53 54 54 55 56 57 58 58 59 60 61 61 62 63 63 63 64 64 64 64
55 55 55 55 54 54 53 52 52 52 50 50 49 48 47 45 44 44 44 44 43 43 42 41 40 40 41 41 41 41 40 40 39 39 39 39 39 39 40 40 40 41 41 41 42 43 43 43 44 44 45 45 45 46 46 47 47 47 48 49 49 50 51 51 52 53 54 55 56 56 57 58 58 59 60 60 60 61 62 62 62 62 62 62 62
55 55 54 54 54 54 53 52 52 51 50 49 48 47 46 45 45 45 45 44 44 43 41 40 40 40 41 41 41 41 40 40 40 40 39 39 39 39 40 40 40 40 41 41 42 43 43 43 43 43 43 43 43 43 43 43 43 44 45 46 47 48 49 50 51 52 53 54 54 55 55 56 56 57 58 58 59 60 61 61 62 62 62 63 63
54 54 54 54 54 54 54 53 52 51 49 48 48 47 46 45 45 46 46 45 44 42 41 40 40 40 41 41 41 41 41 40 40 40 40 40 40 40 40 40 40 40 41 41 41 40 39 39 38 37 37 36 36 37 37 38 40 41 42 44 46 47 48 49 50 51 52 53 53 54 55 55 56 56 57 57 57 58 59 60 61 61 61 61 61
54 54 54 54 54 54 54 54 53 51 50 49 48 48 47 46 46 46 45 44 43 42 40 40 40 40 40 40 40 40 40 39 39 39 39 40 40 40 40 40 39 39 39 37 35 32 30 30 31 31 31 32 33 34 36 38 39 41 42 43 44 46 47 48 50 50 51 52 52 52 53 53 53 52 52 53 53 53 54 54 54 54 54 53 52
55 55 55 55 55 54 54 54 53 52 51 49 49 48 47 46 45 45 44 43 41 40 39 38 38 38 38 39 39 39 39 38 38 38 38 39 39 38 37 36 34 33 31 29 26 25 24 25 26 28 29 30 32 33 35 36 37 39 40 42 43 44 46 47 47 48 49 49 49 49 48 48 47 46 45 44 44 44 43 43 43 43 42 41 41
54 54 54 54 54 54 55 54 53 51 50 48 47 47 46 44 43 43 42 39 37 36 36 35 35 35 36 36 37 37 36 36 36 36 35 34 32 30 28 26 25 25 23 22 22 22 22 23 24 25 26 27 28 29 31 33 35 37 39 41 43 44 45 45 46 46 46 46 46 44 42 39 37 35 34 34 34 34 33 32 32 32 32 31 31
48 49 49 49 49 50 50 49 48 47 45 42 41 41 40 39 38 38 37 35 32 32 32 31 31 32 31 31 32 32 32 32 32 30 27 24 21 19 18 17 17 17 18 18 18 18 18 19 20 20 21 23 25 27 30 32 35 37 40 41 42 43 43 44 44 45 43 41 38 34 30 28 27 27 27 26 27 27 27 27 27 27 27 27 26
37 38 39 39 39 41 39 37 37 37 35 33 33 32 30 28 28 28 29 29 28 27 28 28 27 26 24 24 25 25 25 24 23 20 17 15 14 13 12 12 12 13 13 12 12 12 12 13 14 17 19 22 25 27 30 32 34 37 39 39 39 40 39 39 38 37 34 30 26 23 22 22 22 22 22 22 22 23 23 24 25 25 26 26 26
23 24 25 27 28 28 28 27 27 27 27 25 24 21 18 17 19 22 23 23 23 23 24 23 21 19 17 17 17 16 16 15 13 13 13 13 12 11 11 11 10 9 8 7 6 6 8 11 14 18 20 23 25 27 29 32 34 35 36 37 37 35 32 30 28 27 24 21 19 17 17 17 18 18 18 19 21 22 23 24 25 25 26 26 27
14 14 15 17 18 18 19 20 20 21 21 20 17 15 16 18 20 21 20 20 20 20 19 18 16 15 13 12 11 12 13 13 13 13 13 12 12 11 11 10 9 7 5 2 2 6 10 13 16 19 21 23 25 27 29 31 34 36 37 36 33 27 23 22 21 20 17 15 14 13 14 15 16 16 18 21 22 23 24 24 24 24 25 26 26
9 11 12 13 14 15 16 17 19 21 22 21 18 18 19 19 18 17 17 18 18 18 18 17 16 14 13 11 11 11 12 13 13 13 12 12 12 12 11 10 8 6 3 2 5 8 11 14 18 21 24 25 26 27 30 33 35 37 36 31 24 19 17 17 17 14 12 11 11 13 14 15 16 18 20 22 22 20 20 20 20 21 21 22 22
3 6 10 11 12 14 15 17 20 24 24 22 20 19 18 17 16 16 17 17 18 19 18 17 15 13 12 11 10 9 10 11 11 12 12 13 13 12 11 9 7 4 3 3 5 8 12 15 19 22 25 27 27 28 31 34 36 35 30 22 16 15 15 15 14 12 11 11 12 13 14 16 18 20 21 19 17 17 17 17 17 17 17 18 19
4 6 8 10 11 13 14 15 18 21 22 20 19 18 17 18 18 17 17 17 17 18 17 16 14 13 11 10 9 9 11 11 12 14 14 13 12 12 10 8 6 3 1 2 6 9 13 16 19 22 26 28 29 29 32 35 35 30 23 16 13 13 14 12 11 11 12 13 13 14 16 18 21 20 17 15 16 17 17 16 15 14 13 14 14
8 8 10 11 12 14 15 16 17 19 20 20 19 17 17 17 16 15 15 16 16 16 16 15 14 12 10 11 12 12 13 15 16 15 14 13 12 11 9 7 5 3 0 3 6 10 13 16 19 22 26 28 30 30 32 35 33 25 18 14 13 12 11 11 9 9 11 13 14 15 18 20 20 16 14 15 17 18 17 16 14 12 11 10 9
9 10 11 12 13 14 15 16 17 17 18 17 16 15 14 14 14 14 15 15 16 16 15 14 12 11 12 14 14 15 17 17 15 13 13 12 11 9 8 6 5 3 1 3 6 10 13 16 19 23 26 29 31 32 33 35 33 24 16 13 12 10 9 10 9 10 12 15 16 18 19 18 14 13 14 16 17 18 18 17 14 12 11 10 9
13 10 10 11 12 13 14 15 15 15 16 16 15 14 13 13 14 14 14 14 14 13 12 11 12 13 14 15 17 18 17 15 13 12 12 11 10 9 8 7 5 3 1 3 6 10 13 16 20 23 26 29 32 34 34 36 36 27 17 12 11 9 8 9 10 13 16 17 17 18 16 12 10 13 15 15 15 16 16 15 14 14 13 12 11
15 13 11 11 11 12 13 14 14 14 15 15 14 13 13 13 13 12 12 11 11 10 10 11 13 15 17 18 18 16 14 12 12 12 12 11 10 10 9 7 5 3 2 4 6 9 12 16 19 23 26 29 32 35 36 37 38 33 22 13 10 9 8 9 11 15 17 17 15 14 11 10 10 12 13 13 13 14 14 13 13 13 12 12 11
14 13 12 10 10 10 10 10 10 11 12 12 13 12 12 11 10 9 9 9 9 10 12 15 17 19 19 17 15 14 12 12 13 13 12 11 11 10 9 7 6 4 3 4 6 9 12 15 19 23 26 29 32 35 36 37 38 37 29 19 12 10 9 9 11 15 16 14 11 10 10 11 11 12 13 13 13 12 12 12 12 12 11 12 12
12 11 11 10 9 8 7 7 7 7 8 9 9 9 8 8 8 8 8 9 11 14 17 19 19 18 17 15 14 13 13 13 14 13 12 11 11 10 9 7 7 6 5 5 7 9 12 15 18 21 25 28 30 33 36 36 37 37 35 27 18 12 10 10 11 12 12 10 9 11 12 12 12 12 12 12 11 11 11 12 11 11 11 12 12
10 9 8 7 7 6 4 3 3 3 4 5 6 6 7 7 8 8 10 12 15 18 19 19 18 16 15 15 14 13 13 13 13 13 12 12 12 10 9 8 8 7 6 6 8 9 11 14 17 20 24 27 29 31 34 36 36 37 37 33 25 17 12 11 12 10 8 7 8 10 11 11 10 11 10 9 9 10 12 12 11 10 10 11 12
11 9 7 6 5 4 3 3 2 3 4 5 6 7 8 8 10 11 14 16 18 18 18 17 15 15 15 14 14 13 13 13 13 13 13 13 12 11 10 9 9 8 8 8 8 10 11 13 16 19 22 25 28 29 32 34 36 36 36 35 30 22 14 12 11 9 6 5 8 9 9 8 8 9 10 9 9 10 11 11 11 10 10 10 10
12 11 9 8 7 6 5 5 4 4 4 5 6 7 8 9 11 13 15 16 16 15 14 14 13 13 14 14 13 13 14 14 14 14 14 14 13 11 11 10 10 9 9 9 9 10 12 13 16 18 20 23 26 28 29 32 34 35 35 35 33 28 20 14 11 8 5 5 6 7 8 7 8 9 11 10 10 11 12 12 10 9 8 8 9
11 10 10 9 8 8 7 6 6 6 6 7 7 8 9 10 11 12 12 12 12 12 12 12 12 13 14 14 14 14 14 14 14 14 14 14 13 12 12 11 11 10 10 10 11 11 12 14 15 17 19 22 24 26 28 29 31 33 34 34 34 32 27 20 13 9 6 5 5 5 6 7 9 10 11 12 13 15 16 15 13 10 7 6 7
Wind_Direction
280 276 275 273 261 253 259 271 273 270 265 262 260 260 263 264 265 267 270 272 274 277 280 282 283 282 280 276 272 270 272 274 275 276 275 271 268 266 263 261 259 258 256 253 250 248 246 246 247 249 250 250 249 249 250 252 255 258 259 258 257 257 260 264 266 267 268 269 268 266 264 262 261 259 259 259 258 256 256 256 256 254 254 253 253
276 275 273 271 266 261 262 272 278 276 272 270 269 267 267 267 266 267 268 269 272 275 276 278 279 280 278 273 269 268 268 268 271 273 274 273 270 268 266 265 264 263 262 260 258 256 253 251 249 248 250 251 251 251 251 250 252 254 257 260 261 261 261 262 264 266 266 268 270 271 270 269 267 266 265 264 263 261 259 259 260 260 259 258 256
274 275 273 270 269 268 267 271 275 274 271 273 274 272 270 266 264 263 262 262 265 268 270 273 274 274 274 272 270 270 268 264 264 267 269 272 271 269 267 267 267 267 266 265 263 261 259 258 257 255 254 254 254 254 254 254 254 254 255 257 259 262 264 265 266 269 270 270 270 272 273 274 273 271 269 269 268 267 265 263 262 261 261 261 260
270 272 273 273 273 271 270 271 271 270 270 271 273 273 269 265 263 263 261 258 260 261 262 267 269 268 269 269 270 270 270 267 265 263 264 267 270 270 269 268 267 267 266 266 266 265 263 261 261 261 259 258 258 258 258 258 258 258 258 258 259 260 262 265 267 269 273 275 275 275 275 276 277 276 274 272 271 270 270 269 267 266 264 263 262
266 268 270 273 274 272 270 269 266 267 271 273 272 271 269 265 265 265 264 261 260 258 258 262 266 266 266 268 268 268 268 268 268 266 266 266 267 267 267 265 264 264 264 264 265 266 266 264 264 264 264 262 261 260 260 260 260 260 261 262 262 262 262 262 263 265 268 272 276 277 277 276 278 278 278 277 277 275 273 272 272 271 270 268 265
264 266 268 270 271 270 270 268 265 266 270 273 272 270 267 266 267 268 268 265 262 260 261 262 263 263 263 264 266 267 266 264 265 265 265 265 264 263 262 261 259 259 259 259 259 260 262 263 263 263 264 265 264 263 263 263 265 266 268 269 270 270 269 268 267 266 266 267 270 273 275 276 275 276 277 277 278 279 278 276 275 274 273 272 270
265 265 267 268 270 271 271 271 270 270 271 271 272 270 267 265 265 266 267 266 264 265 267 268 268 268 266 264 265 266 264 261 260 261 261 261 261 260 260 259 259 257 257 257 258 259 259 260 260 261 262 262 263 264 265 267 269 271 273 274 274 275 275 274 273 272 271 271 271 271 273 275 275 275 275 276 276 277 278 278 278 277 275 273 273
266 266 266 267 269 271 273 273 273 273 273 272 272 272 269 267 267 267 268 268 269 270 271 272 273 274 274 271 270 271 270 264 260 260 260 258 257 258 261 261 260 259 258 258 259 261 262 262 262 263 264 264 264 265 266 268 270 273 274 274 274 275 275 275 274 273 273 274 274 275 275 276 276 277 277 277 276 276 277 277 278 279 278 275 273
263 264 265 265 266 268 270 271 272 273 274 274 273 273 273 271 270 270 270 271 271 271 272 272 273 273 274 274 274 276 276 272 264 260 260 260 257 255 257 259 260 262 263 262 261 261 262 263 264 265 266 267 267 267 268 269 270 273 275 275 274 274 274 274 273 273 272 273 274 275 277 277 277 277 277 277 277 277 277 276 276 277 278 277 276
258 259 261 262 263 265 266 268 270 271 272 273 274 274 274 274 274 274 273 273 273 273 272 272 273 273 273 273 273 274 274 273 267 259 255 259 260 256 253 254 258 263 265 265 263 261 261 263 265 266 266 267 268 269 270 270 270 271 273 275 275 275 275 275 274 273 273 272 273 274 275 276 276 276 276 276 276 276 276 276 276 276 275 275 276
259 257 257 259 260 261 263 264 266 268 269 271 272 272 273 274 274 274 274 274 275 274 274 273 274 274 274 273 273 272 270 270 269 263 259 261 265 265 261 259 260 262 264 266 266 265 265 265 266 266 267 267 268 269 270 270 271 271 271 272 274 275 275 276 276 276 276 275 275 275 275 275 275 275 274 274 274 275 275 275 275 274 274 273 273
265 260 258 258 259 259 260 262 263 264 265 267 268 269 270 271 272 272 272 272 272 272 272 271 271 271 272 272 271 271 269 268 268 267 265 265 267 269 269 267 266 265 266 267 267 267 267 266 267 267 268 268 268 269 269 270 270 270 270 270 271 272 273 274 275 276 277 278 278 278 277 276 275 275 274 274 273 273 274 274 274 273 273 273 272
268 265 261 260 260 261 262 263 264 264 264 265 265 266 268 269 269 270 270 270 269 269 269 269 268 268 269 269 269 270 270 269 269 269 269 269 270 270 270 269 267 267 268 267 267 267 266 265 266 267 268 267 267 267 267 268 269 270 270 270 271 271 272 273 274 276 277 278 279 279 279 278 277 276 276 275 275 274 274 274 274 273 273 272 271
265 264 263 263 263 265 266 267 268 268 267 266 266 266 267 267 268 268 268 268 268 268 268 269 269 268 268 268 268 269 270 271 272 271 270 271 271 272 272 270 268 267 267 267 267 267 266 265 266 266 266 266 266 266 267 267 267 268 269 270 271 272 273 274 275 276 277 278 279 279 279 279 279 279 279 278 278 277 276 276 275 275 273 271 270
261 261 263 264 266 268 269 270 271 270 269 268 268 267 267 268 268 268 269 269 269 269 269 270 270 271 271 271 271 271 271 272 272 271 271 272 273 274 275 275 273 271 269 269 269 269 268 268 267 267 266 266 265 266 266 267 267 268 269 270 271 273 274 274 275 276 276 277 278 278 278 279 280 280 280 280 279 279 278 278 277 276 274 272 271
261 261 261 263 266 267 267 269 270 270 269 268 267 267 267 267 267 268 268 269 270 270 270 270 270 271 273 274 274 273 271 270 270 271 272 274 275 275 276 277 278 277 275 273 272 271 270 270 269 269 268 267 266 266 266 266 267 268 269 270 271 272 272 273 274 274 275 276 276 277 277 278 279 279 279 279 279 278 278 278 278 276 275 273 271
263 263 263 265 266 266 266 268 268 266 265 265 265 266 266 266 266 267 267 268 269 270 270 270 270 272 273 273 273 271 270 269 269 269 271 273 275 276 277 277 277 277 277 276 275 274 272 271 271 270 270 269 268 268 267 267 267 268 268 269 270 271 271 271 272 273 273 274 274 275 276 276 277 277 277 277 276 276 276 276 275 274 274 273 271
264 265 266 267 268 268 268 269 267 264 263 263 263 263 264 264 265 266 266 267 267 268 269 269 270 271 272 272 272 271 271 270 270 270 271 272 274 275 276 276 275 275 275 275 275 274 274 274 273 272 271 270 270 269 269 269 268 268 269 269 269 270 270 270 271 271 271 272 272 273 274 274 274 274 274 274 273 273 273 273 272 272 272 272 270
266 267 268 268 268 269 269 269 267 266 265 263 262 262 263 263 264 265 265 265 266 266 267 267 268 269 270 270 271 271 271 271 271 272 272 273 273 274 274 274 274 273 273 273 273 273 273 273 273 272 271 271 270 269 269 269 269 269 269 269 269 269 269 270 270 270 270 271 271 271 271 272 272 272 272 271 271 271 271 271 270 270 270 270 269
267 268 269 269 269 270 269 269 268 267 265 264 263 263 263 263 263 264 265 265 265 266 266 267 267 268 268 269 269 270 270 270 271 271 272 272 273 273 273 273 273 273 273 272 272 271 271 271 271 271 271 270 270 269 269 269 269 270 270 270 270 270 270 270 271 270 270 270 270 270 270 270 270 270 271 271 271 270 270 270 269 269 268 268 268
267 268 269 270 270 271 270 269 268 266 265 265 264 263 263 262 263 263 264 265 266 267 268 268 269 269 269 269 269 269 269 270 270 270 270 271 271 272 273 273 273 273 273 273 273 272 272 272 272 271 271 270 270 270 270 270 270 270 270 270 271 271 271 271 271 271 271 271 270 270 270 270 270 270 270 270 271 270 270 269 269 269 269 268 267
267 268 269 269 269 269 268 268 267 267 266 266 265 265 264 264 264 264 264 265 266 267 268 269 269 270 270 270 270 269 269 269 269 269 269 270 270 271 271 271 271 272 272 272 272 273 273 272 272 271 271 271 270 271 271 271 271 271 271 272 272 272 272 272 272 272 271 271 271 270 270 270 270 270 270 270 270 270 270 270 270 269 269 268 268
267 268 268 269 268 267 266 266 266 267 266 266 266 266 266 266 266 267 267 267 267 267 267 268 268 268 269 269 269 269 269 269 269 269 270 270 270 269 269 270 270 270 270 271 271 272 272 272 272 271 271 271 272 272 272 272 272 272 272 272 272 272 272 272 272 272 272 271 271 270 270 270 270 270 270 270 270 270 270 270 270 270 269 268 268
267 267 267 267 267 266 266 266 266 266 265 265 265 265 266 267 267 268 268 269 269 268 267 267 267 267 267 268 268 268 269 270 270 270 271 271 270 270 269 269 269 269 270 270 271 271 272 272 272 272 272 273 273 273 273 273 273 273 273 273 273 273 273 272 272 272 272 271 271 271 270 270 270 270 270 270 270 270 271 271 271 271 270 269 269
266 266 266 266 265 266 266 267 266 266 266 266 266 265 266 266 267 267 268 269 269 269 269 268 267 267 267 267 268 268 268 269 270 270 270 270 270 270 270 270 270 270 270 270 271 271 272 272 273 273 273 273 274 274 274 274 273 273 273 273 273 273 273 273 272 272 272 271 271 271 271 271 271 270 270 270 271 271 271 271 270 270 270 270 270
264 263 263 264 264 265 266 266 266 266 267 266 266 266 267 267 267 268 269 269 269 268 268 268 267 267 267 268 268 269 269 269 269 269 269 269 270 271 271 271 271 270 270 271 271 272 272 273 273 273 274 274 275 274 274 273 273 273 273 273 273 273 273 273 272 272 272 272 272 271 271 271 271 270 270 270 270 271 271 270 269 268 269 269 270
261 261 261 261 262 263 263 265 266 266 267 267 267 267 267 267 268 269 269 269 268 267 266 266 266 266 266 267 268 269 269 269 269 268 268 269 270 270 270 270 270 271 271 272 272 272 273 273 274 275 275 275 275 275 274 274 273 273 274 274 274 274 273 273 273 273 273 272 272 272 272 271 271 271 271 270 270 270 270 270 269 269 270 270 271
261 261 261 261 261 261 262 263 264 265 266 268 268 268 268 269 269 268 267 267 266 266 265 265 265 265 265 266 267 267 268 268 268 268 268 268 269 269 269 270 270 271 272 273 274 274 275 275 276 276 276 277 277 277 277 277 277 277 277 277 277 276 276 276 276 275 275 274 273 273 272 272 273 273 273 273 273 273 273 272 272 272 272 272 273
262 262 262 262 262 263 263 263 263 264 264 265 267 268 268 268 268 267 267 266 266 265 265 264 265 265 266 266 266 267 267 267 267 267 268 268 268 268 268 269 270 271 273 274 274 275 276 276 277 277 277 278 278 278 279 279 280 279 279 279 279 279 279 278 278 277 277 276 276 276 276 276 276 276 276 276 276 276 275 275 274 274 274 273 273
263 263 263 263 263 264 263 263 263 264 264 264 265 265 265 265 265 265 265 265 265 265 265 265 265 265 265 265 266 267 267 267 267 267 267 267 267 267 268 269 270 271 272 273 274 275 276 276 277 277 278 279 280 281 281 281 281 281 282 282 282 281 281 281 280 280 279 279 279 279 278 278 278 278 278 277 277 277 277 277 276 275 274 274 274
262 263 263 263 263 264 264 264 264 264 264 264 264 264 263 263 263 263 263 264 265 265 265 265 265 265 265 265 265 266 266 266 266 266 266 267 267 268 268 269 269 270 271 272 273 275 276 277 278 279 281 282 282 282 283 283 284 284 284 284 283 283 282 281 281 280 280 280 280 280 280 280 279 279 279 279 279 278 278 277 277 276 275 275 274
263 262 262 262 262 262 262 263 263 263 263 262 262 262 262 262 262 262 263 263 264 266 266 265 265 265 265 265 264 264 264 265 265 265 265 266 266 266 266 267 267 268 269 271 273 275 277 279 281 282 283 284 284 285 285 285 285 284 283 282 282 281 281 281 282 282 283 283 283 283 283 283 282 282 281 280 279 277 277 276 276 275 275 275 274
262 262 261 261 261 261 260 260 260 261 261 261 261 261 261 261 261 262 263 264 264 265 264 264 264 264 264 264 264 264 264 264 264 264 264 264 264 265 265 266 266 267 269 271 273 275 277 279 281 283 285 286 286 286 285 285 285 285 285 284 284 285 286 287 288 288 288 287 287 286 286 285 284 283 281 280 279 278 277 277 277 276 276 276 275
261 261 260 259 259 259 258 257 258 258 258 258 259 259 260 260 261 261 261 262 262 262 261 261 261 262 263 264 264 264 263 262 262 261 261 262 262 263 263 263 264 266 267 268 270 273 277 281 284 286 286 287 288 289 290 291 292 292 292 291 292 292 292 293 292 291 290 289 288 287 287 286 284 283 282 282 281 281 279 278 278 278 278 278 277
260 259 258 257 256 256 256 256 256 256 255 255 255 257 258 259 259 259 258 258 258 257 257 257 258 261 263 263 262 261 260 260 259 258 257 255 254 254 255 256 259 261 262 264 269 274 279 283 287 290 293 296 298 300 300 300 298 297 295 295 294 294 294 293 291 290 289 289 289 289 288 287 286 286 286 286 285 284 282 280 279 278 278 277 276
258 256 254 253 252 252 252 251 251 252 251 248 249 252 256 258 259 257 254 252 250 248 248 251 256 259 259 258 257 257 256 254 252 247 241 237 236 237 239 242 246 250 255 261 269 277 286 296 306 311 312 311 309 306 304 302 300 298 297 296 296 296 295 292 290 290 290 291 291 291 290 290 291 291 291 290 290 288 286 284 282 281 280 279 277
255 252 248 246 245 246 245 241 239 241 239 236 238 243 245 247 254 255 249 242 240 241 243 246 247 246 245 246 246 243 238 234 230 223 220 220 221 223 224 226 228 232 240 250 268 299 323 333 334 330 324 318 314 310 308 307 306 305 303 303 303 301 297 293 290 291 292 293 294 293 292 292 293 294 295 297 296 293 289 286 284 283 282 280 278
244 237 234 233 233 234 233 229 226 223 217 211 216 230 233 231 237 242 238 233 233 235 233 228 225 223 222 221 221 218 216 216 217 218 217 214 210 210 212 209 204 203 209 225 342 358 354 349 344 338 332 327 321 318 316 316 316 314 312 311 307 302 296 292 291 294 297 298 297 294 293 293 293 296 301 303 302 297 293 289 287 285 283 280 278
232 220 216 217 216 216 218 216 209 203 197 194 201 217 225 224 225 229 227 224 223 221 215 209 207 206 203 205 210 213 213 214 217 217 212 202 197 197 197 192 186 181 162 64 21 4 356 352 349 345 340 334 329 326 326 326 323 319 315 311 305 299 294 291 291 296 302 302 298 296 296 297 299 304 310 311 309 304 300 297 294 291 286 282 279
204 193 193 195 197 199 203 202 198 195 195 195 198 203 208 214 220 223 219 214 212 211 207 203 202 202 206 213 216 214 216 220 217 207 196 188 187 189 189 183 173 155 109 47 11 358 355 353 350 347 343 339 336 335 335 334 329 323 317 310 302 300 299 293 288 291 295 298 301 303 302 303 308 312 315 315 315 314 312 309 305 299 292 285 280
144 131 144 156 165 169 173 178 186 190 191 190 188 191 201 211 217 216 212 208 208 207 206 204 204 206 211 219 227 230 228 219 202 189 184 184 186 188 185 174 162 152 115 17 1 357 355 351 348 346 345 344 343 342 343 341 336 327 319 312 309 309 308 301 292 290 292 296 302 307 307 309 314 318 321 325 329 328 327 326 323 316 305 293 285
153 137 131 135 141 148 156 166 176 180 179 180 185 195 204 208 206 205 204 204 204 203 203 204 205 210 222 238 242 232 213 195 185 182 185 188 190 188 180 173 178 192 238 6 2 357 353 349 347 345 346 347 349 350 350 349 345 335 322 320 322 320 316 312 304 299 302 306 311 315 317 317 320 328 338 344 344 343 342 341 338 334 326 313 300
129 144 147 148 150 153 158 164 170 174 178 185 195 202 203 199 196 195 196 196 198 200 202 206 216 231 240 237 221 200 185 180 181 185 190 193 193 188 186 193 205 217 311 3 358 353 350 348 347 346 347 350 354 355 355 356 355 348 333 327 329 325 316 317 320 323 327 326 323 322 321 322 330 347 358 358 355 355 356 355 355 356 354 347 336
89 110 133 148 156 162 166 171 177 183 190 195 198 198 194 192 192 193 192 193 198 202 210 223 235 232 218 200 184 176 175 179 184 190 195 199 198 197 202 210 216 222 291 349 350 349 348 348 348 348 348 352 357 360 360 1 2 359 348 335 335 328 313 316 328 335 335 331 325 321 324 335 355 5 6 4 0 359 2 5 6 7 6 3 357
78 87 103 123 140 153 163 172 179 185 188 190 192 191 189 189 193 196 198 203 207 213 222 227 217 198 182 173 171 173 176 182 190 197 202 205 206 211 216 218 220 231 278 334 343 343 346 348 349 349 350 353 359 2 3 3 5 4 359 349 343 335 317 314 327 335 334 331 327 327 338 360 12 7 2 3 3 2 5 10 11 10 12 14 9
81 84 89 101 118 135 149 160 168 176 182 186 188 188 188 191 197 204 213 218 219 216 210 199 185 174 170 172 175 178 183 191 199 205 209 213 219 222 222 222 228 246 280 319 331 337 345 349 350 350 352 354 359 3 4 5 6 6 4 359 352 342 327 315 321 329 332 334 342 358 12 18 13 2 355 355 358 360 5 12 14 14 19 25 24
86 87 88 92 98 108 120 134 148 160 170 177 183 189 197 208 215 217 218 214 205 194 186 178 173 171 175 180 183 187 194 203 209 214 220 226 228 227 226 231 243 257 276 304 322 334 343 348 349 351 353 355 358 2 5 6 7 8 7 4 358 348 335 322 322 330 337 346 7 24 25 17 7 359 355 358 4 8 11 15 16 17 24 33 36
76 84 90 93 95 96 99 112 142 173 188 198 207 215 224 228 222 211 199 192 186 179 175 173 174 178 185 190 194 198 205 213 219 225 232 235 235 235 237 243 253 263 276 296 316 330 340 346 349 351 353 354 357 1 4 5 7 8 9 6 1 352 339 332 334 338 344 355 12 21 21 15 11 8 4 7 19 24 23 22 21 23 31 39 41
66 72 82 95 106 116 128 154 193 218 226 226 225 225 222 215 203 190 182 179 178 176 175 177 183 192 198 202 206 210 216 223 229 234 240 243 243 244 247 253 262 272 281 293 310 325 334 341 347 350 351 352 355 359 2 4 6 8 9 8 5 358 344 335 336 339 340 353 8 18 24 27 23 13 0 356 4 15 18 21 25 27 33 43 49
66 68 71 79 89 100 114 128 144 164 183 191 193 193 191 187 183 179 177 176 177 179 182 188 199 210 216 219 221 224 228 232 236 240 245 249 250 252 256 261 267 275 282 291 304 318 328 335 342 347 349 350 352 356 359 2 5 7 8 8 7 4 356 344 335 330 323 332 359 21 31 26 14 9 7 7 9 14 17 21 26 29 31 45 61
58 64 68 72 76 82 91 102 114 126 136 143 151 160 166 170 173 177 179 183 188 193 198 204 214 223 230 234 237 238 240 242 244 247 250 253 256 258 261 265 269 274 282 291 301 312 322 329 336 342 345 347 350 353 355 359 3 5 7 8 8 7 3 354 341 325 310 308 327 9 28 17 6 14 24 21 15 15 17 19 23 30 33 44 68
Height
5723 5725 5726 5726 5725 5726 5727 5728 5729 5731 5732 5733 5733 5733 5733 5734 5734 5734 5734 5735 5734 5734 5735 5735 5736 5736 5735 5735 5734 5734 5734 5734 5734 5734 5734 5734 5734 5734 5735 5735 5735 5736 5736 5736 5737 5738 5738 5739 5739 5739 5740 5740 5740 5741 5741 5741 5741 5742 5742 5742 5743 5743 5743 5744 5744 5744 5745 5745 5746 5746 5747 5747 5748 5748 5748 5748 5749 5750 5751 5751 5751 5752 5752 5752 5753
5719 5721 5722 5723 5723 5724 5725 5726 5727 5728 5730 5730 5731 5731 5731 5731 5732 5732 5733 5733 5733 5733 5732 5732 5733 5733 5733 5732 5732 5731 5731 5731 5731 5731 5732 5732 5732 5732 5732 5732 5733 5733 5734 5734 5735 5735 5735 5736 5737 5737 5737 5738 5738 5738 5739 5739 5739 5740 5740 5740 5740 5741 5741 5741 5741 5741 5742 5742 5742 5743 5743 5744 5745 5745 5745 5746 5746 5747 5748 5748 5748 5748 5749 5749 5750
5716 5717 5718 5720 5721 5721 5722 5723 5724 5725 5727 5727 5728 5728 5728 5729 5729 5730 5730 5731 5731 5731 5730 5730 5730 5730 5730 5730 5729 5729 5729 5729 5729 5729 5729 5730 5730 5730 5730 5730 5730 5730 5731 5731 5732 5732 5733 5733 5733 5734 5734 5735 5735 5736 5736 5737 5737 5737 5737 5738 5738 5738 5738 5739 5739 5738 5738 5738 5739 5739 5740 5740 5741 5741 5742 5742 5742 5743 5744 5744 5745 5745 5745 5746 5746
5714 5714 5714 5716 5717 5719 5719 5719 5720 5721 5723 5723 5723 5724 5724 5725 5725 5726 5727 5727 5728 5729 5728 5728 5727 5727 5727 5727 5727 5727 5727 5727 5727 5727 5727 5728 5728 5728 5728 5728 5728 5728 5729 5729 5729 5729 5730 5730 5730 5731 5731 5732 5732 5732 5733 5733 5734 5734 5735 5735 5735 5735 5735 5735 5736 5736 5735 5735 5735 5735 5736 5736 5736 5736 5737 5738 5738 5738 5739 5740 5740 5741 5741 5742 5742
5711 5711 5711 5712 5713 5715 5716 5716 5716 5716 5718 5719 5719 5719 5720 5721 5721 5722 5723 5724 5725 5725 5725 5725 5725 5724 5725 5724 5724 5724 5724 5725 5725 5725 5726 5726 5726 5726 5726 5726 5726 5726 5726 5727 5727 5727 5727 5727 5728 5728 5728 5728 5729 5729 5730 5730 5731 5731 5732 5732 5732 5732 5732 5732 5733 5733 5733 5732 5732 5731 5732 5732 5732 5731 5732 5733 5733 5734 5734 5735 5735 5735 5736 5736 5737
5709 5708 5708 5708 5709 5710 5711 5712 5712 5712 5713 5714 5715 5716 5716 5717 5718 5718 5719 5720 5720 5720 5720 5721 5721 5722 5722 5721 5721 5721 5721 5722 5723 5723 5723 5723 5724 5724 5724 5723 5723 5723 5724 5725 5725 5725 5724 5725 5725 5725 5725 5725 5726 5726 5727 5727 5728 5728 5729 5729 5729 5729 5729 5730 5730 5730 5730 5730 5729 5728 5728 5728 5728 5728 5727 5728 5728 5729 5729 5730 5730 5731 5731 5731 5731
5705 5705 5705 5705 5705 5705 5706 5706 5707 5708 5709 5710 5711 5711 5712 5713 5714 5714 5715 5716 5716 5715 5715 5716 5717 5718 5718 5718 5718 5718 5718 5719 5720 5720 5719 5719 5720 5720 5720 5720 5720 5720 5720 5721 5722 5722 5722 5722 5722 5722 5722 5722 5723 5723 5723 5724 5724 5725 5725 5725 5726 5726 5726 5726 5726 5726 5726 5726 5726 5726 5725 5724 5724 5724 5724 5724 5724 5724 5724 5725 5725 5725 5726 5726 5726
5701 5701 5701 5701 5701 5700 5701 5701 5702 5703 5703 5705 5706 5706 5708 5709 5709 5710 5711 5711 5711 5711 5711 5712 5712 5713 5714 5714 5714 5714 5715 5715 5716 5716 5716 5716 5716 5717 5717 5717 5717 5717 5717 5717 5718 5718 5719 5719 5719 5719 5719 5719 5719 5719 5720 5720 5720 5721 5721 5721 5722 5722 5722 5722 5722 5722 5722 5722 5722 5722 5722 5721 5720 5720 5720 5720 5720 5720 5720 5720 5721 5720 5720 5721 5721
5696 5696 5696 5696 5697 5696 5697 5697 5697 5697 5698 5699 5700 5701 5702 5703 5704 5705 5706 5706 5707 5706 5707 5708 5708 5709 5709 5710 5710 5710 5711 5711 5712 5712 5712 5712 5713 5713 5714 5714 5714 5713 5713 5714 5715 5715 5715 5715 5715 5715 5715 5715 5715 5715 5716 5716 5716 5716 5717 5717 5717 5717 5718 5718 5718 5718 5718 5718 5718 5718 5718 5717 5716 5716 5716 5715 5715 5716 5716 5716 5716 5716 5716 5716 5715
5691 5691 5691 5691 5692 5692 5692 5692 5692 5692 5693 5694 5694 5695 5696 5697 5698 5698 5699 5700 5701 5701 5702 5703 5703 5704 5704 5705 5705 5705 5706 5707 5707 5707 5707 5707 5708 5709 5710 5710 5710 5710 5710 5710 5710 5711 5711 5711 5711 5711 5711 5710 5710 5711 5711 5711 5711 5711 5711 5712 5712 5712 5712 5712 5712 5713 5713 5713 5713 5713 5713 5712 5711 5711 5711 5711 5710 5711 5711 5710 5711 5711 5711 5712 5711
5685 5686 5686 5686 5687 5687 5687 5687 5687 5688 5688 5688 5689 5689 5690 5691 5691 5692 5693 5693 5694 5695 5696 5697 5697 5698 5699 5699 5700 5701 5701 5702 5702 5702 5702 5702 5703 5704 5705 5706 5706 5706 5706 5706 5706 5706 5706 5706 5706 5706 5705 5705 5705 5706 5706 5706 5705 5705 5706 5706 5706 5706 5706 5706 5706 5706 5707 5707 5707 5707 5707 5707 5706 5705 5705 5705 5705 5705 5704 5704 5705 5705 5705 5706 5707
5679 5680 5680 5680 5681 5682 5682 5682 5682 5683 5683 5683 5684 5684 5684 5685 5685 5686 5686 5687 5688 5688 5689 5690 5691 5692 5693 5694 5694 5695 5695 5696 5696 5696 5696 5697 5697 5698 5698 5700 5700 5701 5701 5701 5701 5701 5701 5701 5701 5701 5700 5700 5700 5700 5700 5700 5699 5699 5699 5699 5699 5699 5699 5699 5699 5699 5700 5700 5701 5700 5700 5700 5700 5699 5698 5698 5698 5698 5698 5698 5698 5698 5699 5699 5700
5672 5673 5673 5674 5675 5676 5676 5677 5677 5677 5678 5677 5678 5678 5678 5678 5679 5679 5680 5680 5681 5682 5682 5683 5684 5685 5687 5688 5688 5688 5689 5689 5689 5689 5689 5689 5690 5691 5692 5693 5694 5694 5694 5694 5694 5695 5695 5695 5695 5695 5694 5694 5694 5694 5694 5694 5693 5693 5693 5692 5692 5692 5692 5692 5692 5692 5692 5693 5693 5693 5691 5692 5692 5692 5691 5690 5691 5691 5691 5691 5690 5690 5691 5691 5692
5667 5667 5667 5668 5669 5670 5670 5671 5671 5671 5671 5671 5671 5672 5672 5672 5672 5672 5673 5673 5674 5674 5675 5676 5677 5678 5679 5680 5681 5682 5682 5682 5682 5682 5682 5682 5683 5684 5684 5685 5686 5687 5687 5687 5687 5688 5689 5688 5688 5688 5688 5688 5688 5688 5688 5687 5687 5686 5686 5686 5685 5685 5685 5684 5684 5684 5685 5685 5685 5684 5683 5683 5683 5683 5682 5682 5682 5682 5682 5683 5682 5683 5683 5682 5683
5662 5662 5662 5663 5663 5664 5664 5665 5665 5665 5665 5665 5665 5665 5665 5666 5666 5666 5666 5666 5667 5667 5668 5669 5669 5670 5671 5672 5673 5674 5674 5675 5675 5674 5675 5676 5677 5677 5677 5677 5678 5679 5679 5679 5680 5680 5681 5681 5681 5681 5681 5681 5681 5681 5681 5680 5680 5680 5679 5679 5678 5678 5677 5677 5676 5677 5677 5676 5676 5676 5675 5674 5674 5674 5674 5673 5673 5673 5672 5673 5674 5673 5673 5673 5674
5655 5656 5657 5657 5657 5658 5658 5659 5659 5659 5659 5659 5659 5659 5659 5659 5659 5660 5660 5660 5660 5660 5661 5662 5662 5663 5664 5665 5665 5666 5666 5666 5666 5667 5667 5669 5670 5670 5669 5669 5669 5669 5670 5671 5671 5672 5673 5673 5673 5673 5673 5673 5673 5673 5673 5673 5672 5672 5672 5672 5671 5671 5670 5669 5669 5669 5669 5668 5668 5667 5667 5666 5665 5665 5665 5664 5664 5663 5663 5664 5664 5663 5663 5664 5665
5647 5648 5649 5650 5650 5651 5651 5652 5652 5652 5652 5652 5652 5652 5652 5653 5653 5653 5654 5654 5654 5654 5655 5655 5656 5657 5658 5658 5659 5659 5659 5658 5658 5659 5660 5661 5662 5662 5662 5662 5662 5662 5662 5662 5663 5663 5664 5664 5665 5665 5665 5665 5665 5664 5664 5664 5664 5663 5663 5663 5663 5662 5661 5661 5661 5661 5660 5660 5659 5659 5658 5658 5657 5657 5656 5655 5654 5654 5654 5655 5654 5652 5653 5655 5655
5640 5641 5642 5642 5643 5643 5643 5644 5644 5645 5645 5645 5645 5645 5646 5646 5646 5646 5647 5647 5648 5648 5648 5649 5650 5651 5652 5651 5652 5652 5652 5652 5652 5652 5653 5654 5654 5654 5655 5655 5655 5655 5655 5655 5655 5655 5655 5656 5656 5656 5656 5656 5656 5656 5655 5655 5654 5654 5654 5654 5654 5653 5652 5652 5652 5652 5651 5651 5651 5650 5649 5649 5648 5648 5647 5646 5645 5644 5644 5645 5644 5643 5644 5644 5644
5633 5634 5634 5635 5635 5636 5636 5636 5637 5637 5637 5638 5638 5638 5639 5639 5639 5639 5640 5640 5641 5641 5642 5643 5644 5645 5645 5645 5645 5645 5644 5645 5645 5645 5646 5646 5646 5646 5647 5647 5647 5647 5648 5648 5647 5647 5648 5648 5648 5648 5648 5648 5648 5647 5646 5646 5645 5645 5645 5645 5645 5644 5643 5643 5643 5643 5642 5642 5642 5641 5640 5639 5639 5638 5638 5637 5636 5635 5635 5635 5635 5634 5635 5635 5634
5624 5625 5626 5627 5628 5628 5629 5629 5629 5629 5630 5630 5631 5631 5632 5632 5632 5632 5632 5632 5633 5634 5636 5637 5637 5638 5638 5638 5638 5637 5637 5637 5637 5638 5638 5639 5639 5639 5639 5639 5639 5640 5640 5640 5640 5640 5641 5641 5641 5640 5640 5640 5639 5638 5638 5638 5638 5637 5637 5636 5636 5635 5635 5635 5634 5634 5634 5633 5633 5632 5631 5630 5630 5629 5628 5627 5627 5626 5625 5625 5625 5624 5625 5625 5625
5617 5618 5619 5619 5620 5621 5621 5621 5621 5621 5622 5622 5623 5624 5624 5625 5625 5625 5625 5625 5626 5628 5629 5630 5630 5630 5631 5631 5631 5631 5630 5630 5630 5630 5631 5631 5632 5632 5632 5632 5632 5632 5632 5632 5631 5632 5633 5633 5633 5633 5632 5631 5630 5630 5630 5631 5630 5630 5629 5628 5628 5627 5627 5626 5626 5625 5625 5625 5624 5623 5623 5622 5621 5620 5619 5618 5618 5617 5616 5616 5615 5615 5615 5615 5616
5609 5610 5611 5612 5612 5613 5613 5613 5613 5614 5614 5615 5616 5616 5616 5617 5618 5618 5618 5619 5621 5622 5623 5623 5623 5623 5623 5623 5623 5623 5623 5623 5623 5623 5623 5624 5625 5625 5625 5625 5625 5625 5625 5624 5624 5624 5625 5626 5625 5624 5623 5622 5622 5622 5623 5623 5622 5622 5621 5621 5620 5619 5618 5618 5617 5617 5616 5616 5615 5615 5614 5613 5612 5611 5611 5610 5609 5608 5607 5607 5606 5605 5605 5605 5606
5602 5603 5604 5604 5604 5604 5605 5605 5605 5606 5607 5607 5608 5608 5609 5610 5611 5611 5611 5612 5614 5616 5616 5616 5616 5616 5616 5615 5615 5615 5616 5616 5616 5616 5616 5617 5617 5617 5617 5617 5618 5618 5617 5617 5617 5616 5617 5618 5617 5616 5615 5615 5615 5615 5616 5615 5614 5614 5613 5612 5612 5611 5610 5609 5609 5608 5607 5607 5606 5605 5604 5603 5603 5602 5601 5601 5600 5599 5598 5598 5597 5596 5596 5596 5596
5595 5595 5596 5596 5596 5596 5596 5597 5597 5598 5599 5600 5600 5601 5602 5603 5604 5604 5604 5605 5607 5607 5608 5609 5609 5609 5609 5608 5608 5608 5609 5609 5609 5609 5610 5610 5610 5610 5610 5610 5610 5610 5610 5610 5610 5609 5609 5610 5609 5609 5608 5608 5607 5608 5608 5607 5606 5606 5605 5604 5603 5602 5601 5601 5600 5599 5599 5598 5597 5596 5595 5594 5594 5593 5592 5592 5591 5590 5590 5589 5588 5587 5587 5587 5587
5587 5587 5587 5587 5587 5588 5588 5589 5590 5590 5591 5592 5593 5594 5595 5596 5597 5597 5597 5598 5599 5600 5601 5601 5602 5602 5602 5601 5601 5601 5602 5602 5603 5603 5603 5603 5603 5603 5604 5604 5604 5603 5603 5603 5602 5602 5602 5602 5602 5602 5601 5600 5600 5600 5600 5599 5598 5598 5597 5596 5595 5594 5593 5592 5592 5591 5590 5589 5588 5587 5586 5585 5584 5584 5583 5582 5582 5581 5581 5580 5580 5579 5578 5578 5577
5577 5578 5578 5579 5579 5580 5580 5581 5582 5583 5583 5584 5585 5586 5588 5588 5589 5590 5590 5591 5592 5593 5594 5594 5594 5595 5595 5594 5594 5594 5595 5596 5597 5597 5597 5597 5597 5597 5597 5597 5597 5597 5596 5596 5596 5595 5595 5595 5595 5594 5594 5594 5593 5593 5592 5591 5590 5590 5589 5588 5587 5586 5585 5584 5583 5582 5581 5580 5579 5578 5577 5576 5575 5574 5574 5573 5572 5572 5571 5570 5570 5570 5570 5569 5568
5567 5568 5570 5571 5572 5572 5573 5574 5574 5574 5575 5576 5577 5579 5580 5581 5582 5583 5584 5583 5584 5586 5587 5587 5588 5588 5588 5587 5587 5588 5589 5589 5590 5590 5590 5590 5591 5591 5591 5591 5591 5591 5590 5590 5590 5589 5589 5588 5588 5588 5587 5587 5586 5585 5585 5584 5583 5582 5581 5580 5579 5578 5577 5576 5575 5573 5572 5571 5570 5570 5568 5567 5566 5565 5564 5563 5563 5562 5561 5560 5560 5561 5560 5559 5560
5558 5560 5561 5562 5563 5564 5565 5566 5567 5567 5568 5569 5570 5571 5573 5574 5575 5576 5576 5577 5577 5578 5580 5581 5582 5582 5582 5581 5581 5582 5582 5583 5583 5584 5584 5585 5585 5585 5585 5585 5585 5585 5584 5584 5584 5583 5583 5582 5582 5581 5580 5580 5579 5578 5577 5577 5576 5575 5574 5572 5571 5570 5568 5567 5566 5565 5564 5563 5561 5560 5559 5558 5557 5555 5554 5553 5552 5551 5550 5550 5550 5550 5549 5549 5549
5550 5551 5552 5553 5554 5555 5556 5558 5559 5559 5560 5562 5563 5564 5566 5567 5568 5568 5569 5570 5570 5571 5573 5574 5575 5575 5575 5575 5575 5576 5576 5577 5577 5578 5578 5579 5579 5579 5579 5579 5579 5579 5579 5579 5578 5577 5577 5576 5576 5575 5574 5573 5573 5572 5571 5570 5569 5567 5566 5565 5563 5562 5560 5559 5558 5556 5555 5553 5552 5551 5549 5548 5547 5546 5544 5544 5542 5541 5540 5539 5539 5539 5538 5538 5538
5541 5543 5544 5544 5545 5546 5547 5549 5549 5550 5553 5555 5556 5557 5559 5560 5560 5561 5561 5562 5563 5565 5566 5567 5568 5568 5568 5569 5569 5570 5570 5571 5571 5572 5572 5572 5573 5573 5573 5573 5573 5573 5573 5573 5572 5572 5571 5571 5570 5569 5568 5567 5567 5566 5564 5563 5562 5561 5559 5557 5556 5554 5552 5551 5549 5548 5546 5544 5543 5542 5540 5539 5538 5536 5535 5534 5533 5531 5530 5528 5528 5528 5527 5527 5527
5532 5534 5535 5536 5537 5537 5538 5539 5541 5543 5545 5547 5548 5549 5551 5552 5553 5553 5554 5555 5557 5558 5560 5561 5561 5562 5562 5562 5563 5563 5564 5564 5565 5565 5566 5566 5567 5567 5567 5568 5568 5568 5567 5567 5567 5566 5566 5565 5565 5564 5563 5562 5561 5560 5559 5558 5556 5554 5553 5551 5549 5547 5545 5543 5541 5539 5538 5536 5535 5533 5532 5530 5529 5527 5526 5524 5523 5521 5520 5518 5517 5516 5516 5516 5515
5523 5524 5526 5527 5528 5529 5529 5530 5532 5535 5537 5539 5540 5541 5543 5545 5546 5546 5548 5549 5551 5552 5553 5554 5555 5555 5556 5556 5557 5557 5558 5558 5559 5559 5560 5560 5561 5561 5562 5562 5562 5562 5562 5562 5562 5562 5562 5561 5560 5560 5559 5558 5557 5555 5554 5552 5550 5548 5546 5544 5542 5540 5537 5535 5533 5531 5530 5528 5526 5525 5523 5521 5520 5518 5517 5515 5513 5512 5510 5509 5508 5507 5506 5505 5505
5513 5515 5516 5517 5518 5519 5520 5522 5524 5527 5529 5531 5532 5534 5535 5537 5539 5540 5541 5543 5544 5545 5546 5547 5548 5548 5549 5550 5550 5551 5552 5553 5553 5553 5554 5555 5555 5556 5556 5557 5557 5558 5558 5559 5559 5559 5558 5558 5557 5556 5555 5554 5552 5551 5549 5547 5545 5542 5540 5537 5535 5533 5530 5528 5526 5524 5522 5520 5518 5516 5514 5513 5511 5510 5508 5506 5505 5503 5502 5501 5500 5499 5498 5497 5497
5503 5504 5506 5507 5508 5509 5510 5513 5516 5518 5520 5523 5525 5526 5528 5530 5532 5534 5535 5536 5538 5539 5540 5541 5542 5542 5543 5544 5545 5545 5546 5547 5547 5548 5549 5550 5551 5552 5552 5553 5553 5554 5555 5555 5555 5555 5555 5554 5553 5553 5551 5550 5548 5546 5544 5541 5539 5536 5533 5530 5528 5526 5523 5521 5519 5516 5514 5512 5510 5508 5507 5505 5504 5502 5501 5499 5498 5497 5495 5494 5493 5492 5492 5491 5490
5493 5494 5495 5497 5498 5499 5502 5505 5508 5510 5512 5515 5518 5520 5522 5525 5526 5528 5529 5531 5533 5534 5535 5536 5536 5537 5538 5539 5540 5540 5541 5542 5543 5544 5545 5546 5547 5548 5549 5550 5550 5551 5552 5552 5552 5552 5552 5551 5551 5550 5548 5546 5544 5542 5539 5536 5534 5530 5527 5525 5522 5520 5517 5514 5511 5508 5506 5505 5503 5502 5501 5499 5498 5497 5495 5494 5492 5491 5490 5489 5488 5487 5486 5485 5485
5484 5486 5487 5489 5490 5492 5495 5498 5501 5503 5506 5510 5512 5515 5518 5520 5522 5523 5525 5526 5528 5529 5530 5531 5532 5533 5534 5535 5535 5536 5537 5538 5540 5541 5542 5543 5544 5546 5547 5547 5548 5549 5549 5549 5550 5550 5550 5549 5548 5546 5544 5542 5540 5538 5535 5532 5529 5525 5522 5519 5516 5513 5510 5507 5504 5502 5500 5499 5498 5497 5496 5495 5493 5492 5491 5489 5488 5487 5485 5484 5483 5482 5481 5480 5480
5478 5480 5481 5483 5485 5487 5489 5492 5495 5498 5502 5506 5509 5512 5515 5517 5519 5521 5521 5522 5524 5525 5527 5528 5529 5530 5531 5532 5532 5533 5535 5536 5537 5539 5540 5541 5542 5543 5544 5545 5546 5547 5547 5548 5548 5548 5547 5546 5545 5543 5541 5539 5537 5534 5531 5528 5524 5520 5516 5512 5509 5506 5503 5501 5498 5497 5496 5495 5494 5493 5492 5491 5490 5489 5487 5486 5485 5483 5482 5481 5479 5478 5477 5476 5475
5474 5476 5477 5479 5481 5483 5486 5488 5491 5495 5498 5502 5506 5510 5512 5515 5517 5518 5518 5519 5521 5522 5524 5525 5527 5528 5529 5530 5531 5532 5533 5535 5536 5537 5538 5539 5540 5541 5542 5543 5544 5545 5546 5546 5546 5545 5545 5544 5542 5541 5539 5537 5534 5531 5527 5523 5518 5514 5509 5506 5502 5500 5498 5497 5495 5493 5493 5492 5491 5490 5489 5488 5487 5486 5485 5484 5482 5480 5478 5477 5475 5474 5473 5472 5471
5472 5473 5475 5476 5479 5481 5483 5486 5488 5492 5496 5499 5503 5506 5509 5511 5513 5514 5515 5516 5518 5520 5521 5523 5525 5526 5527 5528 5529 5531 5532 5533 5534 5535 5536 5537 5539 5540 5540 5541 5542 5543 5544 5544 5544 5543 5543 5542 5540 5539 5537 5534 5531 5527 5523 5518 5513 5508 5504 5500 5498 5496 5495 5493 5492 5491 5490 5490 5489 5488 5487 5486 5485 5484 5482 5481 5479 5477 5475 5473 5471 5470 5469 5467 5466
5472 5472 5474 5475 5477 5479 5482 5484 5487 5490 5494 5497 5500 5503 5506 5508 5510 5511 5513 5515 5516 5518 5520 5522 5523 5524 5526 5527 5528 5530 5531 5531 5533 5534 5535 5536 5537 5538 5539 5540 5541 5542 5542 5542 5542 5542 5541 5540 5538 5537 5534 5531 5528 5524 5519 5514 5508 5503 5499 5496 5495 5493 5492 5491 5490 5489 5489 5488 5487 5486 5485 5484 5482 5481 5480 5478 5476 5474 5472 5470 5468 5466 5465 5463 5463
5473 5474 5474 5476 5477 5479 5482 5485 5487 5490 5494 5496 5499 5502 5504 5506 5508 5510 5512 5513 5515 5517 5519 5520 5522 5523 5524 5526 5527 5528 5529 5530 5531 5533 5534 5535 5536 5537 5538 5539 5540 5540 5540 5540 5540 5540 5539 5538 5536 5535 5532 5529 5525 5521 5516 5511 5505 5499 5496 5494 5492 5491 5489 5488 5488 5487 5487 5486 5485 5484 5483 5481 5480 5479 5477 5475 5473 5471 5469 5467 5465 5463 5462 5461 5460
5475 5476 5477 5478 5480 5481 5483 5486 5488 5491 5494 5496 5499 5501 5503 5505 5507 5509 5511 5512 5514 5516 5517 5519 5520 5522 5523 5524 5525 5526 5527 5529 5531 5532 5533 5534 5535 5536 5537 5538 5538 5538 5539 5539 5538 5538 5537 5536 5535 5533 5530 5527 5523 5518 5514 5508 5502 5497 5493 5492 5490 5489 5488 5487 5486 5486 5485 5484 5483 5482 5481 5479 5478 5476 5475 5473 5470 5468 5466 5464 5463 5462 5460 5459 5458
5477 5478 5479 5480 5482 5484 5485 5487 5490 5492 5494 5496 5498 5500 5502 5504 5506 5508 5510 5511 5513 5515 5516 5518 5519 5520 5521 5522 5523 5525 5527 5529 5530 5532 5533 5534 5534 5535 5536 5536 5537 5537 5537 5537 5537 5536 5535 5534 5533 5531 5528 5525 5521 5516 5511 5507 5501 5495 5492 5490 5489 5488 5487 5486 5485 5485 5484 5483 5481 5480 5479 5477 5476 5475 5473 5471 5469 5467 5465 5464 5462 5461 5459 5458 5457
5480 5481 5482 5483 5484 5486 5487 5489 5491 5493 5495 5497 5498 5500 5502 5504 5505 5507 5509 5510 5512 5513 5515 5516 5517 5518 5519 5521 5522 5524 5527 5528 5530 5531 5532 5533 5533 5534 5534 5535 5535 5535 5535 5535 5535 5534 5534 5532 5531 5529 5526 5523 5518 5514 5509 5504 5499 5495 5491 5489 5488 5487 5486 5485 5484 5483 5482 5481 5479 5478 5477 5476 5475 5473 5472 5471 5469 5467 5465 5464 5462 5461 5459 5457 5456
5483 5484 5484 5485 5487 5488 5489 5491 5492 5494 5495 5497 5499 5500 5502 5503 5505 5506 5508 5509 5511 5512 5513 5514 5516 5517 5519 5520 5523 5525 5526 5528 5529 5530 5531 5531 5532 5532 5533 5533 5533 5534 5534 5534 5533 5533 5532 5530 5529 5527 5524 5521 5517 5512 5507 5503 5498 5494 5491 5489 5487 5486 5485 5484 5484 5483 5482 5480 5479 5478 5476 5475 5474 5473 5472 5471 5470 5468 5466 5464 5463 5461 5459 5458 5456
5486 5487 5488 5488 5490 5491 5492 5493 5494 5496 5497 5498 5499 5501 5502 5503 5505 5506 5507 5508 5509 5511 5512 5513 5515 5517 5519 5521 5523 5524 5526 5527 5528 5529 5530 5530 5531 5531 5531 5532 5532 5532 5532 5532 5531 5531 5530 5528 5527 5525 5522 5519 5515 5511 5507 5503 5498 5494 5491 5489 5487 5486 5485 5484 5483 5482 5481 5480 5478 5477 5476 5474 5474 5473 5472 5471 5470 5468 5467 5465 5464 5462 5460 5459 5457
5487 5488 5489 5490 5492 5493 5494 5495 5496 5497 5498 5499 5500 5501 5502 5503 5504 5505 5506 5507 5508 5510 5512 5513 5515 5517 5519 5521 5522 5524 5525 5526 5527 5528 5529 5529 5530 5530 5530 5530 5530 5530 5530 5530 5530 5529 5528 5526 5525 5523 5521 5518 5515 5511 5507 5503 5499 5495 5491 5488 5487 5485 5484 5483 5483 5482 5481 5479 5478 5477 5475 5474 5474 5473 5472 5471 5470 5469 5468 5466 5465 5463 5462 5460 5458
5489 5490 5491 5491 5492 5493 5495 5496 5497 5497 5498 5499 5500 5501 5502 5503 5503 5504 5506 5507 5509 5510 5512 5514 5516 5518 5519 5521 5522 5523 5524 5525 5526 5527 5528 5528 5528 5529 5529 5529 5529 5529 5529 5528 5528 5527 5526 5525 5523 5521 5519 5517 5514 5511 5507 5504 5500 5495 5492 5489 5487 5485 5484 5483 5482 5481 5480 5479 5478 5477 5475 5475 5474 5474 5473 5472 5471 5470 5469 5467 5466 5464 5463 5461 5460
5491 5492 5492 5493 5493 5494 5495 5496 5497 5498 5498 5499 5500 5501 5502 5502 5503 5504 5506 5508 5509 5511 5513 5514 5516 5518 5519 5520 5521 5522 5523 5524 5525 5526 5526 5527 5527 5527 5527 5527 5527 5527 5527 5527 5526 5525 5524 5523 5522 5520 5518 5516 5514 5511 5508 5504 5500 5497 5493 5490 5487 5485 5483 5482 5481 5481 5480 5479 5478 5477 5476 5476 5475 5474 5474 5473 5472 5471 5470 5468 5467 5465 5464 5463 5462
5494 5494 5494 5495 5495 5495 5496 5496 5497 5498 5498 5499 5500 5501 5502 5503 5504 5506 5507 5509 5510 5512 5513 5515 5516 5517 5519 5520 5520 5521 5522 5523 5524 5525 5525 5526 5526 5526 5526 5526 5526 5525 5525 5525 5524 5523 5523 5522 5520 5519 5517 5515 5513 5510 5508 5505 5501 5498 5495 5491 5488 5485 5483 5482 5481 5480 5480 5480 5479 5478 5477 5476 5476 5475 5474 5473 5472 5471 5470 5469 5468 5467 5466 5464 5463
5497 5497 5497 5497 5497 5497 5497 5498 5498 5499 5499 5500 5501 5502 5503 5505 5506 5507 5508 5510 5511 5512 5514 5515 5516 5517 5518 5519 5520 5520 5521 5522 5523 5523 5524 5524 5524 5524 5524 5524 5524 5524 5523 5523 5522 5521 5521 5520 5519 5517 5516 5514 5512 5510 5508 5505 5502 5499 5496 5492 5489 5485 5483 5481 5480 5480 5480 5479 5479 5478 5477 5477 5476 5475 5474 5473 5473 5471 5470 5469 5468 5468 5467 5466 5465